TimeEST,TemperatureF,Dew PointF,Humidity,Sea Level PressureIn,VisibilityMPH,Wind Direction,Wind SpeedMPH,Gust SpeedMPH,PrecipitationIn,Events,Conditions,WindDirDegrees,DateUTC
12:51 AM,18.0,5.0,57,30.49,10.0,ESE,6.9,-,N/A,,Overcast,120,2013-01-25 05:51:00
1:51 AM,18.0,5.0,57,30.45,10.0,ESE,6.9,-,N/A,,Overcast,110,2013-01-25 06:51:00
2:51 AM,19.0,5.0,54,30.45,10.0,ESE,10.4,-,N/A,,Overcast,120,2013-01-25 07:51:00
3:51 AM,19.0,6.1,57,30.43,10.0,ESE,6.9,-,N/A,,Overcast,110,2013-01-25 08:51:00
4:51 AM,19.0,6.1,57,30.36,10.0,East,10.4,-,N/A,,Overcast,100,2013-01-25 09:51:00
5:51 AM,19.4,6.8,58,30.27,10.0,East,10.4,-,N/A,,Overcast,100,2013-01-25 10:51:00
6:51 AM,19.0,5.0,54,30.31,10.0,SE,9.2,-,N/A,,Overcast,130,2013-01-25 11:51:00
7:35 AM,17.6,8.6,68,30.24,2.5,SE,11.5,-,0.00,Snow,Light Snow,130,2013-01-25 12:35:00
7:51 AM,18.0,10.9,74,30.26,2.0,ESE,10.4,-,0.00,Snow,Light Snow,110,2013-01-25 12:51:00
8:04 AM,17.6,12.2,79,30.20,1.8,East,9.2,-,0.00,Snow,Light Snow,90,2013-01-25 13:04:00
8:51 AM,17.1,12.9,84,30.24,1.5,ESE,8.1,-,0.02,Snow,Light Snow,120,2013-01-25 13:51:00
8:58 AM,17.6,12.2,79,30.20,0.5,SE,6.9,-,0.00,Snow,Snow,140,2013-01-25 13:58:00
9:25 AM,17.6,14.0,86,30.19,0.5,SE,12.7,-,0.03,Fog-Snow,Snow,140,2013-01-25 14:25:00
9:51 AM,17.1,14.0,88,30.22,0.5,SE,9.2,-,0.05,Fog-Snow,Snow,140,2013-01-25 14:51:00
10:51 AM,18.0,15.1,88,30.18,0.5,ESE,10.4,-,0.07,Fog-Snow,Snow,120,2013-01-25 15:51:00
11:13 AM,17.6,15.8,93,30.13,0.5,SE,9.2,-,0.02,Snow,Snow,130,2013-01-25 16:13:00
11:46 AM,19.4,15.8,86,30.11,0.5,SE,6.9,-,0.04,Snow,Snow,130,2013-01-25 16:46:00
11:51 AM,19.0,15.1,85,30.15,0.5,SE,8.1,-,0.04,Snow,Snow,130,2013-01-25 16:51:00
12:33 PM,19.4,14.0,80,30.09,1.5,SE,3.5,-,0.01,Snow,Light Snow,140,2013-01-25 17:33:00
12:44 PM,19.4,14.0,80,30.08,5.0,ESE,4.6,-,0.01,Snow,Light Snow,120,2013-01-25 17:44:00
12:51 PM,19.0,14.0,81,30.11,5.0,SE,6.9,-,0.01,Snow,Light Snow,140,2013-01-25 17:51:00
1:02 PM,19.4,14.0,80,30.06,2.5,SSE,5.8,-,0.00,Snow,Light Snow,150,2013-01-25 18:02:00
1:18 PM,19.4,14.0,80,30.06,4.0,SE,8.1,-,0.00,Snow,Light Snow,140,2013-01-25 18:18:00
1:29 PM,19.4,14.0,80,30.07,2.0,SSE,6.9,-,0.01,Snow,Light Snow,160,2013-01-25 18:29:00
1:41 PM,19.4,14.0,80,30.06,5.0,SSE,6.9,-,0.01,Snow,Light Snow,160,2013-01-25 18:41:00
1:51 PM,19.9,14.0,78,30.09,5.0,South,5.8,-,0.01,Snow,Light Snow,170,2013-01-25 18:51:00
2:06 PM,19.4,15.8,86,30.05,8.0,South,3.5,-,0.00,Snow,Light Snow,170,2013-01-25 19:06:00
2:51 PM,21.0,15.1,78,30.07,9.0,Calm,Calm,-,0.00,,Overcast,0,2013-01-25 19:51:00
3:39 PM,21.2,15.8,80,30.02,10.0,Calm,Calm,-,N/A,,Overcast,0,2013-01-25 20:39:00
3:51 PM,21.0,15.1,78,30.06,10.0,SW,3.5,-,N/A,,Overcast,220,2013-01-25 20:51:00
4:32 PM,21.2,15.8,80,30.03,10.0,SW,4.6,-,N/A,,Overcast,220,2013-01-25 21:32:00
4:51 PM,21.0,15.1,78,30.07,10.0,WSW,4.6,-,N/A,,Overcast,240,2013-01-25 21:51:00
5:51 PM,21.0,15.1,78,30.08,10.0,WSW,5.8,-,N/A,,Overcast,250,2013-01-25 22:51:00
6:51 PM,21.9,16.0,78,30.09,10.0,WSW,6.9,-,N/A,,Overcast,250,2013-01-25 23:51:00
7:16 PM,21.2,15.8,80,30.05,10.0,WSW,5.8,-,N/A,,Overcast,240,2013-01-26 00:16:00
7:51 PM,21.9,16.0,78,30.09,10.0,SW,8.1,-,N/A,,Overcast,220,2013-01-26 00:51:00
8:51 PM,21.9,17.1,82,30.12,10.0,West,6.9,-,N/A,,Overcast,260,2013-01-26 01:51:00
9:15 PM,21.2,17.6,86,30.09,10.0,WSW,6.9,-,0.00,Snow,Light Snow,250,2013-01-26 02:15:00
9:51 PM,23.0,18.0,81,30.14,7.0,WSW,3.5,-,0.00,Snow,Light Snow,250,2013-01-26 02:51:00
10:41 PM,23.0,19.4,86,30.10,6.0,SW,8.1,-,0.00,Snow,Light Snow,220,2013-01-26 03:41:00
10:51 PM,23.0,19.9,88,30.14,7.0,SW,8.1,-,0.00,Snow,Light Snow,220,2013-01-26 03:51:00
11:51 PM,24.1,19.9,84,30.13,6.0,SW,5.8,-,0.00,Snow,Light Snow,230,2013-01-26 04:51:00
11:58 PM,24.8,19.4,80,30.10,6.0,SW,5.8,-,0.00,Snow,Light Snow,220,2013-01-26 04:58:00